71.6°F
Current conditions from King Hill
Updated every 5 minutes
 
  Friday August 29, 2014

Station Historical Data
Daily Summary for June 11, 2012 Units:  Metric    English   Both
« Previous Day
Next Day »
Daily Weekly Monthly Yearly Custom
  High: Low: Average:
Temperature: 28.6 °C 14.1 °C 22 °C
Dew Point: 20.9 °C 11.9 °C 16.6 °C
Humidity: 89% 58% 72%
Wind Speed: 14.5km/h 0km/h 6.9km/h
Wind Gust: 35.4km/h - -
Wind- - SSW
Pressure: 1019.9 hPa 1016.1 hPa -
Precipitation: 0 mm    
Historical Graphs
 
 
Tabular Data for June 11, 2012
Time Temperature Dew Point Pressure Wind Wind Speed Wind Gust Humidity Daily Rainfall
00:04 14.1 °C 12 °C 1018.5 hPa Calm     87% 0 mm
00:09 14.1 °C 11.9 °C 1018.5 hPa Calm     87% 0 mm
00:14 14.1 °C 11.9 °C 1018.5 hPa Calm     87% 0 mm
00:19 14.1 °C 12.1 °C 1018.5 hPa Calm     88% 0 mm
00:24 14.1 °C 12.1 °C 1018.5 hPa Calm     88% 0 mm
00:29 14.1 °C 12.2 °C 1018.5 hPa Calm     88% 0 mm
00:34 14.1 °C 12.1 °C 1018.5 hPa Calm     88% 0 mm
00:39 14.1 °C 12.3 °C 1018.5 hPa Calm     89% 0 mm
00:44 14.1 °C 12.3 °C 1018.5 hPa Calm     89% 0 mm
00:49 14.1 °C 12.3 °C 1018.5 hPa Calm     89% 0 mm
00:54 14.1 °C 12.3 °C 1018.5 hPa Calm     89% 0 mm
00:59 14.1 °C 12.3 °C 1018.5 hPa Calm     89% 0 mm
01:04 14.1 °C 12.3 °C 1018.2 hPa Calm     89% 0 mm
01:09 14.2 °C 12.4 °C 1018.5 hPa Calm     89% 0 mm
01:14 14.2 °C 12.4 °C 1018.2 hPa Calm     89% 0 mm
01:19 14.2 °C 12.4 °C 1018.5 hPa Calm     89% 0 mm
01:24 14.3 °C 12.5 °C 1018.5 hPa Calm     89% 0 mm
01:29 14.3 °C 12.5 °C 1018.5 hPa Calm     89% 0 mm
01:34 14.3 °C 12.6 °C 1018.5 hPa Calm     89% 0 mm
01:39 14.3 °C 12.6 °C 1018.5 hPa Calm     89% 0 mm
01:44 14.3 °C 12.5 °C 1018.2 hPa Calm     89% 0 mm
01:49 14.3 °C 12.5 °C 1018.2 hPa Calm     89% 0 mm
01:54 14.3 °C 12.5 °C 1018.2 hPa Calm     89% 0 mm
01:59 14.3 °C 12.6 °C 1018.2 hPa Calm     89% 0 mm
02:04 14.4 °C 12.4 °C 1018.2 hPa Calm     88% 0 mm
02:09 14.6 °C 12.6 °C 1018.2 hPa Calm     88% 0 mm
02:14 14.7 °C 12.5 °C 1018.2 hPa Calm     87% 0 mm
02:19 14.8 °C 12.6 °C 1018.2 hPa Calm     87% 0 mm
02:24 14.8 °C 12.4 °C 1018.2 hPa Calm     86% 0 mm
02:29 14.8 °C 12.5 °C 1018.2 hPa Calm     86% 0 mm
02:34 14.8 °C 12.5 °C 1018.2 hPa Calm     86% 0 mm
02:39 14.8 °C 12.5 °C 1018.2 hPa Calm     86% 0 mm
02:44 14.8 °C 12.4 °C 1017.8 hPa Calm     86% 0 mm
02:49 14.7 °C 12.4 °C 1018.2 hPa Calm     86% 0 mm
02:54 14.7 °C 12.6 °C 1018.2 hPa Calm     87% 0 mm
02:59 14.7 °C 12.6 °C 1018.2 hPa Calm     87% 0 mm
03:04 14.7 °C 12.6 °C 1018.2 hPa Calm     87% 0 mm
03:09 14.7 °C 12.5 °C 1018.2 hPa Calm     87% 0 mm
03:14 14.6 °C 12.4 °C 1018.2 hPa Calm     87% 0 mm
03:19 14.4 °C 12.3 °C 1018.2 hPa Calm     87% 0 mm
03:24 14.4 °C 12.3 °C 1018.2 hPa Calm     87% 0 mm
03:29 14.4 °C 12.5 °C 1018.2 hPa Calm     88% 0 mm
03:34 14.4 °C 12.5 °C 1018.2 hPa Calm     88% 0 mm
03:39 14.5 °C 12.4 °C 1018.2 hPa Calm     87% 0 mm
03:44 14.6 °C 12.4 °C 1018.2 hPa Calm   1.6 km/h 87% 0 mm
03:49 14.6 °C 12.5 °C 1018.2 hPa Calm   4.8 km/h 87% 0 mm
03:54 14.8 °C 12.6 °C 1018.2 hPa Calm   4.8 km/h 87% 0 mm
03:59 15.1 °C 12.9 °C 1018.2 hPa SW 1.6 km/h 16.1 km/h 87% 0 mm
04:04 15.8 °C 13.3 °C 1018.2 hPa SW 1.6 km/h 16.1 km/h 85% 0 mm
04:09 16.3 °C 13.4 °C 1018.2 hPa Calm   16.1 km/h 83% 0 mm
04:14 16.7 °C 13.4 °C 1018.2 hPa Calm   9.7 km/h 81% 0 mm
04:19 16.9 °C 13.5 °C 1018.2 hPa Calm   9.7 km/h 80% 0 mm
04:24 17.1 °C 13.6 °C 1018.2 hPa Calm   9.7 km/h 80% 0 mm
04:29 17.3 °C 13.6 °C 1018.2 hPa Calm   9.7 km/h 79% 0 mm
04:34 17.4 °C 13.7 °C 1018.2 hPa Calm   9.7 km/h 79% 0 mm
04:39 17.4 °C 13.8 °C 1018.2 hPa SW 3.2 km/h 8 km/h 79% 0 mm
04:44 17.6 °C 13.9 °C 1018.2 hPa SSW 1.6 km/h 11.3 km/h 79% 0 mm
04:49 17.6 °C 13.9 °C 1018.2 hPa Calm   11.3 km/h 79% 0 mm
04:54 17.6 °C 13.9 °C 1018.5 hPa SSW 4.8 km/h 11.3 km/h 79% 0 mm
04:59 17.7 °C 14 °C 1018.5 hPa SW 3.2 km/h 11.3 km/h 79% 0 mm
05:04 17.7 °C 14.2 °C 1018.5 hPa SSW 1.6 km/h 11.3 km/h 80% 0 mm
05:09 17.7 °C 14.2 °C 1018.5 hPa Calm   11.3 km/h 80% 0 mm
05:14 17.7 °C 14.2 °C 1018.5 hPa SSW 4.8 km/h 12.9 km/h 80% 0 mm
05:19 17.7 °C 14.2 °C 1018.5 hPa SSW 1.6 km/h 12.9 km/h 80% 0 mm
05:24 17.8 °C 14.5 °C 1018.5 hPa Calm   11.3 km/h 81% 0 mm
05:29 17.8 °C 14.6 °C 1018.8 hPa Calm   11.3 km/h 81% 0 mm
05:34 18 °C 14.7 °C 1018.8 hPa SSW 3.2 km/h 11.3 km/h 81% 0 mm
05:39 18.2 °C 14.8 °C 1018.8 hPa SSW 3.2 km/h 11.3 km/h 81% 0 mm
05:44 18.2 °C 14.8 °C 1018.8 hPa SW 3.2 km/h 11.3 km/h 81% 0 mm
05:49 18.3 °C 14.9 °C 1019.2 hPa SSW 3.2 km/h 12.9 km/h 81% 0 mm
05:54 18.3 °C 14.9 °C 1019.2 hPa SSW 4.8 km/h 12.9 km/h 81% 0 mm
05:59 18.3 °C 14.9 °C 1019.2 hPa SW 6.4 km/h 12.9 km/h 81% 0 mm
06:04 18.3 °C 15.2 °C 1019.2 hPa SW 3.2 km/h 11.3 km/h 82% 0 mm
06:09 18.3 °C 15.2 °C 1019.2 hPa SSW 3.2 km/h 11.3 km/h 82% 0 mm
06:14 18.4 °C 15.3 °C 1019.2 hPa SSW 4.8 km/h 12.9 km/h 82% 0 mm
06:19 18.5 °C 15.2 °C 1019.2 hPa SSW 4.8 km/h 14.5 km/h 81% 0 mm
06:24 18.6 °C 15.3 °C 1019.2 hPa SSW 6.4 km/h 14.5 km/h 81% 0 mm
06:29 18.6 °C 15.3 °C 1019.2 hPa SW 4.8 km/h 12.9 km/h 81% 0 mm
06:34 18.7 °C 15.3 °C 1019.5 hPa SSW 8 km/h 14.5 km/h 81% 0 mm
06:39 18.7 °C 15.4 °C 1019.5 hPa SSW 6.4 km/h 14.5 km/h 81% 0 mm
06:44 18.8 °C 15.4 °C 1019.5 hPa SSW 4.8 km/h 19.3 km/h 81% 0 mm
06:49 18.9 °C 15.6 °C 1019.5 hPa SW 4.8 km/h 19.3 km/h 81% 0 mm
06:54 18.9 °C 15.4 °C 1019.5 hPa SSW 6.4 km/h 16.1 km/h 80% 0 mm
06:59 19.1 °C 15.6 °C 1019.5 hPa SW 6.4 km/h 16.1 km/h 80% 0 mm
07:04 19.2 °C 15.6 °C 1019.5 hPa SSW 8 km/h 17.7 km/h 80% 0 mm
07:09 19.2 °C 15.5 °C 1019.5 hPa SSW 6.4 km/h 17.7 km/h 79% 0 mm
07:14 19.3 °C 15.6 °C 1019.5 hPa SSW 4.8 km/h 16.1 km/h 79% 0 mm
07:19 19.4 °C 15.7 °C 1019.5 hPa SSW 8 km/h 16.1 km/h 79% 0 mm
07:24 19.6 °C 15.8 °C 1019.5 hPa SSW 8 km/h 16.1 km/h 79% 0 mm
07:29 19.6 °C 15.9 °C 1019.5 hPa SSW 6.4 km/h 16.1 km/h 79% 0 mm
07:34 19.6 °C 15.7 °C 1019.5 hPa SSW 8 km/h 16.1 km/h 78% 0 mm
07:39 19.7 °C 15.8 °C 1019.5 hPa SSW 8 km/h 16.1 km/h 78% 0 mm
07:44 19.9 °C 15.9 °C 1019.5 hPa SW 6.4 km/h 19.3 km/h 78% 0 mm
07:49 20.2 °C 16.2 °C 1019.5 hPa SSW 6.4 km/h 19.3 km/h 78% 0 mm
07:54 20.4 °C 16.4 °C 1019.5 hPa SW 4.8 km/h 14.5 km/h 78% 0 mm
07:59 20.6 °C 16.2 °C 1019.5 hPa SW 8 km/h 19.3 km/h 76% 0 mm
08:04 20.8 °C 16.6 °C 1019.5 hPa SSW 4.8 km/h 19.3 km/h 77% 0 mm
08:09 21 °C 16.6 °C 1019.5 hPa SSW 6.4 km/h 16.1 km/h 76% 0 mm
08:14 21.1 °C 16.4 °C 1019.5 hPa SSW 6.4 km/h 24.1 km/h 75% 0 mm
08:19 21.3 °C 16.7 °C 1019.5 hPa SSW 4.8 km/h 24.1 km/h 75% 0 mm
08:24 21.4 °C 16.8 °C 1019.5 hPa SSW 4.8 km/h 24.1 km/h 75% 0 mm
08:29 21.6 °C 16.5 °C 1019.5 hPa SSW 9.7 km/h 30.6 km/h 73% 0 mm
08:34 21.6 °C 17 °C 1019.5 hPa SW 6.4 km/h 30.6 km/h 75% 0 mm
08:39 21.8 °C 16.7 °C 1019.9 hPa SW 12.9 km/h 24.1 km/h 73% 0 mm
08:44 21.7 °C 16.8 °C 1019.9 hPa SSW 4.8 km/h 24.1 km/h 74% 0 mm
08:49 21.3 °C 16.5 °C 1019.9 hPa SSW 8 km/h 24.1 km/h 74% 0 mm
08:54 21.3 °C 16.4 °C 1019.9 hPa SSW 9.7 km/h 24.1 km/h 74% 0 mm
08:59 21.3 °C 16.5 °C 1019.9 hPa SSW 8 km/h 24.1 km/h 74% 0 mm
09:04 21.3 °C 16.5 °C 1019.9 hPa SW 12.9 km/h 22.5 km/h 74% 0 mm
09:09 21.5 °C 16.9 °C 1019.5 hPa SW 4.8 km/h 22.5 km/h 75% 0 mm
09:14 21.8 °C 17.2 °C 1019.9 hPa SW 6.4 km/h 20.9 km/h 75% 0 mm
09:19 22.2 °C 17.3 °C 1019.5 hPa SW 6.4 km/h 20.9 km/h 74% 0 mm
09:24 22.4 °C 17.2 °C 1019.9 hPa SW 12.9 km/h 25.7 km/h 72% 0 mm
09:29 22.7 °C 17.4 °C 1019.5 hPa SSW 9.7 km/h 25.7 km/h 72% 0 mm
09:34 22.9 °C 17.8 °C 1019.5 hPa SSW 8 km/h 19.3 km/h 73% 0 mm
09:39 23.2 °C 17.7 °C 1019.5 hPa SSW 6.4 km/h 20.9 km/h 71% 0 mm
09:44 23.3 °C 17.7 °C 1019.5 hPa SSW 9.7 km/h 20.9 km/h 71% 0 mm
09:49 23.4 °C 17.6 °C 1019.5 hPa SW 9.7 km/h 19.3 km/h 70% 0 mm
09:54 23.4 °C 17.9 °C 1019.2 hPa SW 11.3 km/h 19.3 km/h 71% 0 mm
09:59 23.9 °C 17.9 °C 1019.2 hPa SSW 9.7 km/h 22.5 km/h 69% 0 mm
10:04 24 °C 17.9 °C 1019.2 hPa SSW 4.8 km/h 22.5 km/h 69% 0 mm
10:09 24.2 °C 18.1 °C 1019.5 hPa SSW 4.8 km/h 19.3 km/h 69% 0 mm
10:14 24.1 °C 18.3 °C 1019.5 hPa SSW 9.7 km/h 25.7 km/h 70% 0 mm
10:19 24.1 °C 18.6 °C 1019.5 hPa SSW 11.3 km/h 25.7 km/h 71% 0 mm
10:24 24.1 °C 18.1 °C 1019.5 hPa SSW 8 km/h 22.5 km/h 69% 0 mm
10:29 24.4 °C 18.6 °C 1019.5 hPa SW 6.4 km/h 19.3 km/h 70% 0 mm
10:34 24.6 °C 18.5 °C 1019.2 hPa SW 8 km/h 19.3 km/h 69% 0 mm
10:39 24.6 °C 18.6 °C 1019.2 hPa SSW 6.4 km/h 16.1 km/h 69% 0 mm
10:44 24.8 °C 18.8 °C 1019.5 hPa SW 12.9 km/h 25.7 km/h 69% 0 mm
10:49 24.9 °C 19.8 °C 1019.2 hPa SW 1.6 km/h 25.7 km/h 73% 0 mm
10:54 25.2 °C 18.9 °C 1019.2 hPa SSW 8 km/h 19.3 km/h 68% 0 mm
10:59 25.3 °C 19.7 °C 1019.5 hPa SSW 3.2 km/h 17.7 km/h 71% 0 mm
11:04 25.3 °C 18.5 °C 1019.5 hPa South 6.4 km/h 19.3 km/h 66% 0 mm
11:09 24.8 °C 18.6 °C 1019.5 hPa SSW 8 km/h 19.3 km/h 68% 0 mm
11:14 24.7 °C 18.9 °C 1019.5 hPa SW 8 km/h 17.7 km/h 70% 0 mm
11:19 24.7 °C 18.6 °C 1019.5 hPa SW 6.4 km/h 20.9 km/h 69% 0 mm
11:24 24.7 °C 18.7 °C 1019.5 hPa SSW 8 km/h 20.9 km/h 69% 0 mm
11:29 24.7 °C 18.6 °C 1019.2 hPa SW 8 km/h 17.7 km/h 69% 0 mm
11:34 24.5 °C 18.7 °C 1019.5 hPa SW 8 km/h 17.7 km/h 70% 0 mm
11:39 24.4 °C 18.6 °C 1019.5 hPa SW 9.7 km/h 17.7 km/h 70% 0 mm
11:44 24.4 °C 18.8 °C 1019.2 hPa WSW 4.8 km/h 16.1 km/h 71% 0 mm
11:49 24.5 °C 18.4 °C 1019.2 hPa SW 11.3 km/h 20.9 km/h 69% 0 mm
11:54 24.6 °C 18.8 °C 1019.2 hPa SW 9.7 km/h 22.5 km/h 70% 0 mm
11:59 25 °C 19.2 °C 1019.2 hPa SW 9.7 km/h 22.5 km/h 70% 0 mm
12:04 25.4 °C 19.5 °C 1019.2 hPa SW 6.4 km/h 19.3 km/h 70% 0 mm
12:09 25.8 °C 19.4 °C 1018.8 hPa WSW 6.4 km/h 19.3 km/h 68% 0 mm
12:14 25.9 °C 19.8 °C 1018.8 hPa SW 11.3 km/h 27.4 km/h 69% 0 mm
12:19 25.7 °C 19.1 °C 1018.8 hPa SW 9.7 km/h 27.4 km/h 67% 0 mm
12:24 25.9 °C 19.6 °C 1018.8 hPa SW 8 km/h 24.1 km/h 68% 0 mm
12:29 26.1 °C 19.7 °C 1018.8 hPa WSW 6.4 km/h 25.7 km/h 68% 0 mm
12:34 26.2 °C 19.6 °C 1018.8 hPa SW 9.7 km/h 25.7 km/h 67% 0 mm
12:39 25.9 °C 19.3 °C 1018.8 hPa South 6.4 km/h 20.9 km/h 67% 0 mm
12:44 26.1 °C 19.5 °C 1018.8 hPa SSW 8 km/h 22.5 km/h 67% 0 mm
12:49 26.2 °C 19.6 °C 1018.8 hPa SW 8 km/h 27.4 km/h 67% 0 mm
12:54 26.5 °C 20.1 °C 1018.5 hPa SW 4.8 km/h 27.4 km/h 68% 0 mm
12:59 26.7 °C 19.8 °C 1018.8 hPa SW 6.4 km/h 22.5 km/h 66% 0 mm
13:04 26.9 °C 20.1 °C 1018.5 hPa SW 3.2 km/h 22.5 km/h 66% 0 mm
13:09 27.1 °C 19.7 °C 1018.5 hPa SW 8 km/h 19.3 km/h 64% 0 mm
13:14 27.1 °C 20.2 °C 1018.5 hPa SW 6.4 km/h 19.3 km/h 66% 0 mm
13:19 27.3 °C 20.9 °C 1018.5 hPa SW 3.2 km/h 19.3 km/h 68% 0 mm
13:24 27.3 °C 19.7 °C 1018.5 hPa SW 9.7 km/h 19.3 km/h 63% 0 mm
13:29 27.3 °C 20.7 °C 1018.5 hPa SW 11.3 km/h 19.3 km/h 67% 0 mm
13:34 27.4 °C 20.9 °C 1018.2 hPa WSW 1.6 km/h 19.3 km/h 68% 0 mm
13:39 27.5 °C 20.8 °C 1018.2 hPa SSW 3.2 km/h 16.1 km/h 67% 0 mm
13:44 27.7 °C 20.3 °C 1018.2 hPa South 3.2 km/h 20.9 km/h 64% 0 mm
13:49 27.8 °C 20.6 °C 1018.2 hPa SSE 4.8 km/h 20.9 km/h 65% 0 mm
13:54 27.7 °C 20.1 °C 1018.2 hPa South 8 km/h 17.7 km/h 63% 0 mm
13:59 27.6 °C 19.9 °C 1017.8 hPa South 6.4 km/h 19.3 km/h 63% 0 mm
14:04 27.8 °C 20.6 °C 1017.8 hPa Calm   19.3 km/h 65% 0 mm
14:09 27.9 °C 20.5 °C 1017.8 hPa South 3.2 km/h 14.5 km/h 64% 0 mm
14:14 27.8 °C 19.6 °C 1017.8 hPa SW 4.8 km/h 14.5 km/h 61% 0 mm
14:19 27.9 °C 20.4 °C 1017.8 hPa SSW 3.2 km/h 14.5 km/h 64% 0 mm
14:24 28.1 °C 20.4 °C 1017.8 hPa South 3.2 km/h 12.9 km/h 63% 0 mm
14:29 28.1 °C 20.4 °C 1017.8 hPa SW 3.2 km/h 17.7 km/h 63% 0 mm
14:34 28.2 °C 19.7 °C 1017.8 hPa SW 9.7 km/h 19.3 km/h 60% 0 mm
14:39 28.2 °C 20 °C 1017.8 hPa SW 8 km/h 19.3 km/h 61% 0 mm
14:44 28.2 °C 19.9 °C 1017.5 hPa SSW 9.7 km/h 19.3 km/h 61% 0 mm
14:49 28.1 °C 19.6 °C 1017.5 hPa SW 6.4 km/h 19.3 km/h 60% 0 mm
14:54 28.1 °C 20.2 °C 1017.5 hPa SSW 4.8 km/h 16.1 km/h 62% 0 mm
14:59 28.2 °C 19.4 °C 1017.5 hPa SSW 6.4 km/h 17.7 km/h 59% 0 mm
15:04 28.1 °C 20.4 °C 1017.5 hPa SSW 1.6 km/h 17.7 km/h 63% 0 mm
15:09 28.1 °C 19.6 °C 1017.5 hPa SW 8 km/h 16.1 km/h 60% 0 mm
15:14 28.1 °C 20.4 °C 1017.5 hPa South 4.8 km/h 17.7 km/h 63% 0 mm
15:19 27.9 °C 19.7 °C 1017.2 hPa SW 8 km/h 17.7 km/h 61% 0 mm
15:24 28.3 °C 20.3 °C 1017.2 hPa SSW 3.2 km/h 14.5 km/h 62% 0 mm
15:29 28.4 °C 19.9 °C 1017.2 hPa South 4.8 km/h 14.5 km/h 60% 0 mm
15:34 28.5 °C 20.5 °C 1017.2 hPa SE 4.8 km/h 17.7 km/h 62% 0 mm
15:39 28.4 °C 20.9 °C 1017.2 hPa South 1.6 km/h 19.3 km/h 64% 0 mm
15:44 28.6 °C 19.8 °C 1017.2 hPa SSW 1.6 km/h 19.3 km/h 59% 0 mm
15:49 28.4 °C 19.6 °C 1017.2 hPa SW 8 km/h 22.5 km/h 59% 0 mm
15:54 28.3 °C 19.5 °C 1017.2 hPa SW 12.9 km/h 22.5 km/h 59% 0 mm
15:59 28.1 °C 19.3 °C 1017.2 hPa SW 6.4 km/h 22.5 km/h 59% 0 mm
16:04 28.3 °C 20.1 °C 1017.2 hPa WSW 4.8 km/h 19.3 km/h 61% 0 mm
16:09 28.3 °C 19.2 °C 1017.2 hPa SW 9.7 km/h 20.9 km/h 58% 0 mm
16:14 28 °C 19.5 °C 1017.2 hPa SW 11.3 km/h 25.7 km/h 60% 0 mm
16:19 28.1 °C 20.1 °C 1016.8 hPa WSW 3.2 km/h 25.7 km/h 62% 0 mm
16:24 28 °C 19.8 °C 1016.8 hPa SW 11.3 km/h 24.1 km/h 61% 0 mm
16:29 28 °C 19.3 °C 1016.8 hPa SW 8 km/h 24.1 km/h 59% 0 mm
16:34 28 °C 19.8 °C 1016.8 hPa SW 4.8 km/h 20.9 km/h 61% 0 mm
16:39 27.9 °C 19.2 °C 1016.8 hPa SW 3.2 km/h 20.9 km/h 59% 0 mm
16:44 28 °C 19.5 °C 1016.5 hPa SW 6.4 km/h 20.9 km/h 60% 0 mm
16:49 28.1 °C 19.8 °C 1016.5 hPa SW 4.8 km/h 19.3 km/h 61% 0 mm
16:54 28 °C 19.3 °C 1016.8 hPa SW 4.8 km/h 20.9 km/h 59% 0 mm
16:59 27.9 °C 19.2 °C 1016.8 hPa SSW 8 km/h 29 km/h 59% 0 mm
17:04 27.9 °C 19.2 °C 1016.5 hPa SW 3.2 km/h 29 km/h 59% 0 mm
17:09 27.9 °C 19.2 °C 1016.5 hPa SW 8 km/h 19.3 km/h 59% 0 mm
17:14 27.9 °C 19.2 °C 1016.5 hPa SW 6.4 km/h 19.3 km/h 59% 0 mm
17:19 27.8 °C 19.1 °C 1016.5 hPa SSW 6.4 km/h 19.3 km/h 59% 0 mm
17:24 27.8 °C 19.1 °C 1016.5 hPa SSW 3.2 km/h 19.3 km/h 59% 0 mm
17:29 27.8 °C 19.4 °C 1016.5 hPa SW 6.4 km/h 24.1 km/h 60% 0 mm
17:34 27.7 °C 19.3 °C 1016.5 hPa SSW 9.7 km/h 24.1 km/h 60% 0 mm
17:39 27.7 °C 19.3 °C 1016.5 hPa SW 8 km/h 19.3 km/h 60% 0 mm
17:44 27.7 °C 18.9 °C 1016.1 hPa SSW 6.4 km/h 17.7 km/h 59% 0 mm
17:49 27.6 °C 19.4 °C 1016.5 hPa SSW 3.2 km/h 16.1 km/h 61% 0 mm
17:54 27.6 °C 19.4 °C 1016.5 hPa SW 4.8 km/h 22.5 km/h 61% 0 mm
17:59 27.4 °C 18.7 °C 1016.5 hPa SSW 8 km/h 22.5 km/h 59% 0 mm
18:04 27.1 °C 18.9 °C 1016.5 hPa SW 8 km/h 24.1 km/h 61% 0 mm
18:09 27.1 °C 19.2 °C 1016.5 hPa SSW 1.6 km/h 24.1 km/h 62% 0 mm
18:14 27.2 °C 19 °C 1016.5 hPa SW 8 km/h 16.1 km/h 61% 0 mm
18:19 27.1 °C 18.9 °C 1016.5 hPa SW 6.4 km/h 17.7 km/h 61% 0 mm
18:24 26.8 °C 18.7 °C 1016.5 hPa SW 9.7 km/h 17.7 km/h 61% 0 mm
18:29 26.8 °C 18.7 °C 1016.5 hPa SW 8 km/h 17.7 km/h 61% 0 mm
18:34 26.8 °C 18.6 °C 1016.5 hPa WSW 4.8 km/h 19.3 km/h 61% 0 mm
18:39 26.8 °C 18.9 °C 1016.5 hPa SW 6.4 km/h 19.3 km/h 62% 0 mm
18:44 26.6 °C 19 °C 1016.5 hPa SSW 8 km/h 16.1 km/h 63% 0 mm
18:49 26.6 °C 18.7 °C 1016.5 hPa SW 8 km/h 16.1 km/h 62% 0 mm
18:54 26.4 °C 18.6 °C 1016.5 hPa SSW 6.4 km/h 12.9 km/h 62% 0 mm
18:59 26.3 °C 18.5 °C 1016.5 hPa SW 6.4 km/h 19.3 km/h 62% 0 mm
19:04 26.2 °C 18.6 °C 1016.5 hPa SW 6.4 km/h 20.9 km/h 63% 0 mm
19:09 26.1 °C 18.5 °C 1016.5 hPa SSW 4.8 km/h 20.9 km/h 63% 0 mm
19:15 26 °C 18.2 °C 1016.5 hPa SSW 6.4 km/h 12.9 km/h 62% 0 mm
19:24 25.6 °C 18.1 °C 1016.1 hPa SW 6.4 km/h 16.1 km/h 63% 0 mm
19:29 25.4 °C 17.9 °C 1016.5 hPa SSW 8 km/h 24.1 km/h 63% 0 mm
19:34 25.1 °C 17.6 °C 1016.1 hPa SSW 8 km/h 24.1 km/h 63% 0 mm
19:39 24.8 °C 17.6 °C 1016.5 hPa SSW 9.7 km/h 19.3 km/h 64% 0 mm
19:44 24.7 °C 17.4 °C 1016.5 hPa SSW 6.4 km/h 20.9 km/h 64% 0 mm
19:50 24.7 °C 17.7 °C 1016.5 hPa SW 4.8 km/h 20.9 km/h 65% 0 mm
19:59 24.4 °C 17.6 °C 1016.1 hPa SW 4.8 km/h 12.9 km/h 66% 0 mm
20:04 24.1 °C 17.6 °C 1016.5 hPa SSW 6.4 km/h 12.9 km/h 67% 0 mm
20:09 23.9 °C 17.6 °C 1016.1 hPa SW 3.2 km/h 19.3 km/h 68% 0 mm
20:14 23.7 °C 17.4 °C 1016.1 hPa SW 6.4 km/h 19.3 km/h 68% 0 mm
20:19 23.4 °C 17.4 °C 1016.1 hPa SSW 6.4 km/h 19.3 km/h 69% 0 mm
20:25 23.3 °C 17.1 °C 1016.1 hPa SW 8 km/h 22.5 km/h 68% 0 mm
20:34 23.2 °C 17.2 °C 1016.1 hPa SSW 6.4 km/h 19.3 km/h 69% 0 mm
20:40 23.1 °C 17.1 °C 1016.1 hPa SSW 8 km/h 16.1 km/h 69% 0 mm
20:45 22.9 °C 17.2 °C 1016.5 hPa SW 3.2 km/h 16.1 km/h 70% 0 mm
20:54 22.7 °C 16.9 °C 1016.5 hPa SW 6.4 km/h 17.7 km/h 70% 0 mm
20:59 22.6 °C 16.9 °C 1016.5 hPa SSW 11.3 km/h 20.9 km/h 70% 0 mm
21:04 22.6 °C 16.9 °C 1016.5 hPa SW 9.7 km/h 20.9 km/h 70% 0 mm
21:09 22.6 °C 16.8 °C 1016.5 hPa SSW 4.8 km/h 19.3 km/h 70% 0 mm
21:15 22.4 °C 16.7 °C 1016.5 hPa SW 8 km/h 17.7 km/h 70% 0 mm
21:24 22.2 °C 16.5 °C 1016.5 hPa SSW 8 km/h 20.9 km/h 70% 0 mm
21:29 22.2 °C 16.5 °C 1016.5 hPa SSW 8 km/h 25.7 km/h 70% 0 mm
21:34 22.1 °C 16.4 °C 1016.5 hPa SSW 6.4 km/h 25.7 km/h 70% 0 mm
21:39 21.9 °C 16.4 °C 1016.5 hPa SSW 6.4 km/h 22.5 km/h 71% 0 mm
21:45 21.8 °C 16.1 °C 1016.5 hPa SSW 11.3 km/h 22.5 km/h 70% 0 mm
21:54 21.7 °C 15.8 °C 1016.5 hPa SSW 11.3 km/h 22.5 km/h 69% 0 mm
21:59 21.7 °C 15.8 °C 1016.5 hPa SW 11.3 km/h 29 km/h 69% 0 mm
22:04 21.6 °C 15.4 °C 1016.5 hPa SSW 14.5 km/h 32.2 km/h 68% 0 mm
22:09 21.6 °C 15.4 °C 1016.5 hPa SW 9.7 km/h 32.2 km/h 68% 0 mm
22:14 21.6 °C 15.4 °C 1016.5 hPa SSW 8 km/h 27.4 km/h 68% 0 mm
22:19 21.4 °C 15.3 °C 1016.5 hPa SSW 11.3 km/h 24.1 km/h 68% 0 mm
22:24 21.3 °C 15.2 °C 1016.5 hPa SW 11.3 km/h 25.7 km/h 68% 0 mm
22:29 21.2 °C 15.1 °C 1016.5 hPa SSW 11.3 km/h 25.7 km/h 68% 0 mm
22:34 21.2 °C 15.3 °C 1016.5 hPa SW 4.8 km/h 25.7 km/h 69% 0 mm
22:39 21 °C 14.9 °C 1016.5 hPa SW 8 km/h 22.5 km/h 68% 0 mm
22:44 20.9 °C 14.8 °C 1016.5 hPa SSW 9.7 km/h 24.1 km/h 68% 0 mm
22:49 20.9 °C 14.6 °C 1016.5 hPa SSW 3.2 km/h 27.4 km/h 67% 0 mm
22:54 20.8 °C 14.5 °C 1016.5 hPa SSW 9.7 km/h 27.4 km/h 67% 0 mm
22:59 20.7 °C 14.4 °C 1016.5 hPa SSW 8 km/h 32.2 km/h 67% 0 mm
23:04 20.7 °C 14.3 °C 1016.5 hPa SSW 8 km/h 32.2 km/h 67% 0 mm
23:09 20.5 °C 14.2 °C 1016.5 hPa SSW 8 km/h 35.4 km/h 67% 0 mm
23:14 20.5 °C 14.2 °C 1016.5 hPa SW 11.3 km/h 35.4 km/h 67% 0 mm
23:19 20.4 °C 14.1 °C 1016.5 hPa SSW 9.7 km/h 32.2 km/h 67% 0 mm
23:24 20.4 °C 14.1 °C 1016.1 hPa SSW 8 km/h 27.4 km/h 67% 0 mm
23:29 20.3 °C 13.8 °C 1016.1 hPa SSW 11.3 km/h 25.7 km/h 66% 0 mm
23:34 20.3 °C 13.7 °C 1016.1 hPa SSW 11.3 km/h 22.5 km/h 66% 0 mm
23:39 20.2 °C 13.6 °C 1016.1 hPa SSW 9.7 km/h 24.1 km/h 66% 0 mm
23:44 20.2 °C 13.6 °C 1016.1 hPa SW 12.9 km/h 25.7 km/h 66% 0 mm
23:49 20.1 °C 13.6 °C 1016.1 hPa SW 6.4 km/h 25.7 km/h 66% 0 mm
23:54 20.1 °C 13.5 °C 1016.1 hPa SSW 11.3 km/h 30.6 km/h 66% 0 mm
23:59 20 °C 13.4 °C 1016.1 hPa SSW 6.4 km/h 30.6 km/h 66% 0 mm
Westford Weather
Compliments of Weather Underground

 
 
Current Radar Loop:

Copyright © WestfordWeather.net 2007-2014. All rights reserved.